User: anonymous   Login
Location: Newark
(54.2500°N, 9.1833°E)
Time: 09:49:41
(UTC+00:00)
Language:

A-11 Canister half - Orbit

View from above orbital plane
View from above orbital plane
View from above satellite
View from above satellite

Ground track
Ground track

The orbit data is extracted from the following two-line orbital elements,

1 00051U 60009C   21026.91722930 -.00000101  00000-0 -15071-3 0  9996
2 00051  47.2148  16.0796 0104274 107.6711 253.5494 12.18270361691339
Epoch (UTC): 26 January 2021 22:00:48
Eccentricity: 0.0104274
inclination: 47.2148°
perigee height: 1517 km
apogee height: 1683 km
right ascension of ascending node: 16.0796°
argument of perigee: 107.6711°
revolutions per day: 12.18270361
mean anomaly at epoch: 253.5494°
orbit number at epoch: 69133

The dashed part of the orbit path shows where the satellite is in the earth's shadow,  

DLR